T 2003 Aug. 8.44811 TT                                  Nakano

q   6.0112793            (2000.0)            P               Q

                   Peri.   16.54125     +0.47667937     +0.74459355

                   Node   284.17959     -0.85123400     +0.25824272

e   1.0            Incl.   28.81424     -0.21949363     +0.61554134

From 105 observations 2004 Aug. 5-Sept. 22.



NAKANO

         **** Don't distribute anyone except personal use only ****

                (C) Copyright 2004 OAA/ComputingSection

write mail from CFAD0::NAKANO on 2004-10-04 01:08:29(JST).

 

    C/2004 P1 (NEAT)                                                      

T 2003 Aug. 3.14139 TT                                  Nakano

q   6.0195355            (2000.0)            P               Q

                   Peri.   15.98361     +0.47273687     +0.74639543

                   Node   284.41431     -0.85217668     +0.25191780

e   1.0            Incl.   28.92345     -0.22430952     +0.61597994

From 51 observations 2004 Aug. 5-22.



NAKANO

         **** Don't distribute anyone except personal use only ****

                (C) Copyright 2004 OAA/ComputingSection

write mail from CFAD0::NAKANO on 2004-09-05 02:52:38(JST).

 



◎C/2004 P1の軌道と予報位置です



 EMESと山本速報2434にある軌道から8月20日の観測は,60"以上の大きな

ずれがありました.

 那賀川の堀寿夫氏と前野拓氏による8月11日の CCD全光度は19.4等でした.



    C/2004 P1 (NEAT)                                                      

T 2003 Aug. 12.70971 TT                                 Nakano

q   6.0041440            (2000.0)            P               Q

                   Peri.   17.00837     +0.47975805     +0.74324621

                   Node   283.96720     -0.85051105     +0.26338939

e   1.0            Incl.   28.71717     -0.21555318     +0.61498870

From 45 observations 2004 Aug. 5-20.

 

Date/        TT  R.A.(2000) Decl.     Delta   r     Daily motion  Mag.  Moon Age

              h    h  m       。  ,                      ,  / PA 。  m1      。

2004 Aug. 20 12  21 36.87  +12 52.9   5.619  6.545     5.5 / 269  18.4  125  .20

          21 12  21 36.50  +12 52.9   5.621  6.547     5.5 / 268  18.4  114  .29

          22 12  21 36.12  +12 52.7   5.624  6.550     5.4 / 268  18.4  103  .40

          23 12  21 35.75  +12 52.5   5.627  6.553     5.4 / 267  18.4   90  .51

          24 12  21 35.38  +12 52.1   5.630  6.556     5.4 / 266  18.4   78  .62

          25 12  21 35.02  +12 51.8   5.633  6.558     5.3 / 265  18.4   66  .73

          26 12  21 34.66  +12 51.3   5.637  6.561     5.3 / 264  18.4   54  .83

          27 12  21 34.30  +12 50.8   5.641  6.564     5.3 / 264  18.4   43  .91

          28 12  21 33.94  +12 50.2   5.645  6.567     5.2 / 263  18.4   35  .96

          29 12  21 33.59  +12 49.6   5.650  6.569     5.2 / 262  18.4   30  .99

          30 12  21 33.24  +12 48.8   5.655  6.572     5.1 / 261  18.4   32 1.00

          31 12  21 32.89  +12 48.1   5.660  6.575     5.1 / 260  18.4   39  .97

     Sept. 1 12  21 32.55  +12 47.2   5.665  6.578     5.0 / 260  18.4   48  .93

           2 12  21 32.21  +12 46.3   5.671  6.581     5.0 / 259  18.4   58  .87

           3 12  21 31.88  +12 45.3   5.676  6.583     4.9 / 258  18.4   69  .79

           4 12  21 31.55  +12 44.3   5.683  6.586     4.9 / 257  18.4   79  .70

           5 12  21 31.23  +12 43.2   5.689  6.589     4.8 / 256  18.4   90  .61

           6 12  21 30.91  +12 42.1   5.696  6.592     4.7 / 256  18.4  100  .51

           7 12  21 30.59  +12 40.9   5.702  6.595     4.7 / 255  18.4  110  .42

           8 12  21 30.29  +12 39.7   5.710  6.598     4.6 / 254  18.4  120  .33

           9 12  21 29.98  +12 38.4   5.717  6.600     4.5 / 253  18.4  130  .24

          10 12  21 29.69  +12 37.1   5.725  6.603     4.5 / 252  18.4  138  .16

          11 12  21 29.40  +12 35.7   5.733  6.606     4.4 / 251  18.4  145  .10

          12 12  21 29.12  +12 34.3   5.741  6.609     4.3 / 250  18.4  149  .05

          13 12  21 28.84  +12 32.8   5.749  6.612     4.2 / 249  18.5  149  .01

          14 12  21 28.57  +12 31.3   5.758  6.615     4.2 / 248  18.5  144  .00

          15 12  21 28.31  +12 29.8   5.767  6.618     4.1 / 247  18.5  136  .01

          16 12  21 28.05  +12 28.2   5.776  6.620     4.0 / 246  18.5  126  .04

          17 12  21 27.80  +12 26.6   5.785  6.623     3.9 / 245  18.5  115  .10

          18 12  21 27.56  +12 24.9   5.795  6.626     3.8 / 244  18.5  103  .17

          19 12  21 27.33  +12 23.2   5.805  6.629     3.7 / 243  18.5   91  .26

          20 12  21 27.10  +12 21.5   5.815  6.632     3.6 / 242  18.5   79  .37

          21 12  21 26.88  +12 19.8   5.825  6.635     3.5 / 240  18.5   67  .48

          22 12  21 26.67  +12 18.0   5.836  6.638     3.5 / 239  18.5   55  .60

          23 12  21 26.47  +12 16.3   5.846  6.641     3.4 / 238  18.5   45  .71

          24 12  21 26.28  +12 14.4   5.857  6.644     3.3 / 236  18.5   36  .80

          25 12  21 26.09  +12 12.6   5.869  6.647     3.2 / 235  18.5   31  .89

          26 12  21 25.91  +12 10.8   5.880  6.650     3.1 / 233  18.5   31  .95

          27 12  21 25.74  +12 08.9   5.892  6.652     3.0 / 231  18.5   37  .99

          28 12  21 25.58  +12 07.1   5.903  6.655     2.9 / 230  18.5   45 1.00

          29 12  21 25.43  +12 05.2   5.916  6.658     2.8 / 228  18.5   56  .99

          30 12  21 25.29  +12 03.3   5.928  6.661     2.7 / 226  18.5   66  .96

     Oct.  1 12  21 25.16  +12 01.4   5.940  6.664     2.6 / 224  18.5   77  .91

NAKANO

         **** Don't distribute anyone except personal use only ****

                (C) Copyright 2004 OAA/ComputingSection

write mail from CFAD0::NAKANO on 2004-08-22 00:59:09(JST).

 

◎C/2004 P1の軌道と予報位置です



  那賀川の堀寿夫氏と前野拓氏から,我が国で最初となるこの彗星の観測報告

がありました.氏等の CCD全光度は,19.3等でした.なお,18等台の CCD観測

もあります.彗星は,周期が 500年から1000年程度の長周期彗星でしょう.



    C/2004 P1 (NEAT)                                                      

T 2006 Mar. 16.20578 TT                                 Nakano

q   5.6162773            (2000.0)            P               Q

                   Peri.   99.66505     +0.76525022     -0.42647657

                   Node   286.97454     +0.17766854     +0.85988832

e   1.0            Incl.   30.27538     +0.61872934     +0.28055270

From 27 observations 2004 Aug. 5-Aug. 9.

 

Date/        TT  R.A.(2000) Decl.     Delta   r     Daily motion  Mag.  Moon Age

              h    h  m       。  ,                      ,  / PA 。  m1      。

2004 Aug. 10 12  21 40.65  +12 49.4   6.073  6.980     5.6 / 278  19.7  101  .26

          11 12  21 40.27  +12 50.2   6.066  6.976     5.6 / 277  19.7  112  .18

          12 12  21 39.89  +12 50.9   6.059  6.971     5.6 / 276  19.7  122  .12

          13 12  21 39.51  +12 51.5   6.052  6.967     5.7 / 275  19.7  131  .06

          14 12  21 39.12  +12 52.0   6.046  6.963     5.7 / 275  19.7  140  .03

          15 12  21 38.74  +12 52.4   6.040  6.959     5.7 / 274  19.7  146  .00

          16 12  21 38.35  +12 52.8   6.034  6.955     5.7 / 273  19.7  150  .00

          17 12  21 37.96  +12 53.1   6.029  6.951     5.7 / 272  19.7  149  .02

          18 12  21 37.58  +12 53.3   6.024  6.947     5.7 / 272  19.7  144  .06

          19 12  21 37.19  +12 53.5   6.019  6.943     5.7 / 271  19.7  135  .12

          20 12  21 36.80  +12 53.6   6.014  6.939     5.6 / 270  19.7  125  .20

          21 12  21 36.42  +12 53.6   6.010  6.935     5.6 / 269  19.7  114  .29

          22 12  21 36.03  +12 53.5   6.006  6.931     5.6 / 269  19.7  103  .40

          23 12  21 35.65  +12 53.4   6.002  6.927     5.6 / 268  19.7   90  .51

          24 12  21 35.26  +12 53.1   5.998  6.923     5.6 / 267  19.7   78  .62

          25 12  21 34.88  +12 52.9   5.995  6.919     5.6 / 266  19.7   66  .73

          26 12  21 34.50  +12 52.5   5.992  6.915     5.5 / 266  19.7   54  .83

          27 12  21 34.13  +12 52.1   5.989  6.911     5.5 / 265  19.7   43  .91

          28 12  21 33.75  +12 51.6   5.987  6.907     5.5 / 264  19.7   35  .96

          29 12  21 33.38  +12 51.1   5.985  6.903     5.4 / 264  19.7   30  .99

          30 12  21 33.01  +12 50.5   5.983  6.899     5.4 / 263  19.7   32 1.00

          31 12  21 32.64  +12 49.9   5.981  6.895     5.4 / 262  19.7   39  .97

     Sept. 1 12  21 32.27  +12 49.1   5.979  6.891     5.3 / 262  19.7   48  .93

           2 12  21 31.91  +12 48.3   5.978  6.887     5.3 / 261  19.7   58  .87

           3 12  21 31.56  +12 47.5   5.977  6.883     5.3 / 260  19.7   69  .79

           4 12  21 31.20  +12 46.6   5.977  6.879     5.2 / 259  19.7   79  .70

           5 12  21 30.85  +12 45.7   5.976  6.875     5.2 / 259  19.7   90  .61

           6 12  21 30.51  +12 44.6   5.976  6.871     5.1 / 258  19.7  100  .51

           7 12  21 30.17  +12 43.6   5.977  6.867     5.1 / 257  19.7  110  .42

           8 12  21 29.83  +12 42.5   5.977  6.863     5.0 / 257  19.7  120  .33

           9 12  21 29.50  +12 41.3   5.978  6.859     4.9 / 256  19.7  130  .24

          10 12  21 29.17  +12 40.1   5.979  6.855     4.9 / 255  19.7  138  .16

NAKANO

         **** Don't distribute anyone except personal use only ****

                (C) Copyright 2004 OAA/ComputingSection

write mail from CFAD0::NAKANO on 2004-08-11 04:45:26(JST).

